Time,TemperatureF,DewpointF,PressureIn,WindDirection,WindDirectionDegrees,WindSpeedMPH,WindSpeedGustMPH,Humidity,HourlyPrecipIn,Conditions,Clouds,dailyrainin,SolarRadiationWatts/m^2,SoftwareType,DateUTC
2013-04-19 00:02:00,69.0,60.0,-100.00,ENE,74,14.0,27.0,74,0.00,,,0.25,0.000000,,2013-04-19 10:02:00,
2013-04-19 00:13:00,69.0,60.0,-100.00,ENE,74,14.0,27.0,74,0.00,,,0.25,0.000000,,2013-04-19 10:13:00,
2013-04-19 00:23:00,69.0,60.0,-100.00,ENE,74,14.0,27.0,74,0.00,,,0.25,0.000000,,2013-04-19 10:23:00,
2013-04-19 00:33:00,69.0,60.0,-100.00,ENE,74,14.0,27.0,74,0.00,,,0.25,0.000000,,2013-04-19 10:33:00,
2013-04-19 01:02:00,68.0,58.0,-100.00,ENE,75,12.0,22.0,71,0.00,,,0.25,0.000000,,2013-04-19 11:02:00,
2013-04-19 01:11:00,68.0,58.0,-100.00,ENE,75,12.0,22.0,71,0.00,,,0.25,0.000000,,2013-04-19 11:11:00,
2013-04-19 01:22:00,68.0,58.0,-100.00,ENE,75,12.0,22.0,71,0.00,,,0.25,0.000000,,2013-04-19 11:22:00,
2013-04-19 01:32:00,68.0,58.0,-100.00,ENE,75,12.0,22.0,71,0.00,,,0.25,0.000000,,2013-04-19 11:32:00,
2013-04-19 02:02:00,67.0,59.0,-100.00,ENE,78,11.0,16.0,75,0.00,,,0.25,0.000000,,2013-04-19 12:02:00,
2013-04-19 02:12:00,67.0,59.0,-100.00,ENE,78,11.0,16.0,75,0.00,,,0.25,0.000000,,2013-04-19 12:12:00,
2013-04-19 02:22:00,67.0,59.0,-100.00,ENE,78,11.0,16.0,75,0.00,,,0.25,0.000000,,2013-04-19 12:22:00,
2013-04-19 02:32:00,67.0,59.0,-100.00,ENE,78,11.0,16.0,75,0.00,,,0.25,0.000000,,2013-04-19 12:32:00,
2013-04-19 03:01:00,67.0,60.0,-100.00,NNE,23,8.0,15.0,77,0.00,,,0.25,0.000000,,2013-04-19 13:01:00,
2013-04-19 03:11:00,67.0,60.0,-100.00,NNE,23,8.0,15.0,77,0.00,,,0.25,0.000000,,2013-04-19 13:11:00,
2013-04-19 03:21:00,67.0,60.0,-100.00,NNE,23,8.0,15.0,77,0.00,,,0.25,0.000000,,2013-04-19 13:21:00,
2013-04-19 03:32:00,67.0,60.0,-100.00,NNE,23,8.0,15.0,77,0.00,,,0.25,0.000000,,2013-04-19 13:32:00,
2013-04-19 04:01:00,67.0,56.0,-100.00,ENE,60,13.0,20.0,68,0.00,,,0.25,0.000000,,2013-04-19 14:01:00,
2013-04-19 04:11:00,67.0,56.0,-100.00,ENE,60,13.0,20.0,68,0.00,,,0.25,0.000000,,2013-04-19 14:11:00,
2013-04-19 04:21:00,67.0,56.0,-100.00,ENE,60,13.0,20.0,68,0.00,,,0.25,0.000000,,2013-04-19 14:21:00,
2013-04-19 04:31:00,67.0,56.0,-100.00,ENE,60,13.0,20.0,68,0.00,,,0.25,0.000000,,2013-04-19 14:31:00,
2013-04-19 05:01:00,63.0,57.0,-100.00,ESE,110,10.0,16.0,80,0.00,,,0.25,0.000000,,2013-04-19 15:01:00,
2013-04-19 05:12:00,63.0,57.0,-100.00,ESE,110,10.0,16.0,80,0.00,,,0.25,0.000000,,2013-04-19 15:12:00,
2013-04-19 05:21:00,63.0,57.0,-100.00,ESE,110,10.0,16.0,80,0.00,,,0.25,0.000000,,2013-04-19 15:21:00,
2013-04-19 05:33:00,63.0,57.0,-100.00,ESE,110,10.0,16.0,80,0.00,,,0.25,0.000000,,2013-04-19 15:33:00,
2013-04-19 06:03:00,66.0,55.0,-100.00,East,86,10.0,18.0,68,0.00,,,0.25,0.000000,,2013-04-19 16:03:00,
2013-04-19 06:12:00,66.0,55.0,-100.00,East,86,10.0,18.0,68,0.00,,,0.25,0.000000,,2013-04-19 16:12:00,
2013-04-19 06:23:00,66.0,55.0,-100.00,East,86,10.0,18.0,68,0.00,,,0.25,0.000000,,2013-04-19 16:23:00,
2013-04-19 06:32:00,66.0,55.0,-100.00,East,86,10.0,18.0,68,0.00,,,0.25,0.000000,,2013-04-19 16:32:00,
2013-04-19 07:02:00,63.0,54.0,-100.00,ESE,111,5.0,14.0,72,0.00,,,0.25,19.000000,,2013-04-19 17:02:00,
2013-04-19 07:12:00,63.0,54.0,-100.00,ESE,111,5.0,14.0,72,0.00,,,0.25,19.000000,,2013-04-19 17:12:00,
2013-04-19 07:21:00,63.0,54.0,-100.00,ESE,111,5.0,14.0,72,0.00,,,0.25,19.000000,,2013-04-19 17:21:00,
2013-04-19 07:32:00,63.0,54.0,-100.00,ESE,111,5.0,14.0,72,0.00,,,0.25,19.000000,,2013-04-19 17:32:00,
2013-04-19 08:01:00,72.0,59.0,-100.00,East,85,6.0,10.0,64,0.00,,,0.25,207.000000,,2013-04-19 18:01:00,
2013-04-19 08:13:00,72.0,59.0,-100.00,East,85,6.0,10.0,64,0.00,,,0.25,207.000000,,2013-04-19 18:13:00,
2013-04-19 08:22:00,72.0,59.0,-100.00,East,85,6.0,10.0,64,0.00,,,0.25,207.000000,,2013-04-19 18:22:00,
2013-04-19 08:32:00,72.0,59.0,-100.00,East,85,6.0,10.0,64,0.00,,,0.25,207.000000,,2013-04-19 18:32:00,
2013-04-19 09:01:00,77.0,59.0,-100.00,NW,323,3.0,7.0,54,0.00,,,0.25,457.000000,,2013-04-19 19:01:00,
2013-04-19 09:11:00,77.0,59.0,-100.00,NW,323,3.0,7.0,54,0.00,,,0.25,457.000000,,2013-04-19 19:11:00,
2013-04-19 09:21:00,77.0,59.0,-100.00,NW,323,3.0,7.0,54,0.00,,,0.25,457.000000,,2013-04-19 19:21:00,
2013-04-19 09:31:00,77.0,59.0,-100.00,NW,323,3.0,7.0,54,0.00,,,0.25,457.000000,,2013-04-19 19:31:00,
2013-04-19 10:01:00,80.0,59.0,-100.00,NW,317,4.0,8.0,49,0.00,,,0.25,718.000000,,2013-04-19 20:01:00,
2013-04-19 10:11:00,80.0,59.0,-100.00,NW,317,4.0,8.0,49,0.00,,,0.25,718.000000,,2013-04-19 20:11:00,
2013-04-19 10:22:00,80.0,59.0,-100.00,NW,317,4.0,8.0,49,0.00,,,0.25,718.000000,,2013-04-19 20:22:00,
2013-04-19 10:31:00,80.0,59.0,-100.00,NW,317,4.0,8.0,49,0.00,,,0.25,718.000000,,2013-04-19 20:31:00,
2013-04-19 11:01:00,77.0,64.0,-100.00,WNW,292,7.0,16.0,65,0.00,,,0.25,614.000000,,2013-04-19 21:01:00,
2013-04-19 11:11:00,77.0,64.0,-100.00,WNW,292,7.0,16.0,65,0.00,,,0.25,614.000000,,2013-04-19 21:11:00,
2013-04-19 11:21:00,77.0,64.0,-100.00,WNW,292,7.0,16.0,65,0.00,,,0.25,614.000000,,2013-04-19 21:21:00,
2013-04-19 11:32:00,77.0,64.0,-100.00,WNW,292,7.0,16.0,65,0.00,,,0.25,614.000000,,2013-04-19 21:32:00,
2013-04-19 12:02:00,78.0,64.0,-100.00,West,267,10.0,15.0,63,0.00,,,0.25,983.000000,,2013-04-19 22:02:00,
2013-04-19 12:12:00,78.0,64.0,-100.00,West,267,10.0,15.0,63,0.00,,,0.25,983.000000,,2013-04-19 22:12:00,
2013-04-19 12:22:00,78.0,64.0,-100.00,West,267,10.0,15.0,63,0.00,,,0.25,983.000000,,2013-04-19 22:22:00,
2013-04-19 12:33:00,78.0,64.0,-100.00,West,267,10.0,15.0,63,0.00,,,0.25,983.000000,,2013-04-19 22:33:00,
2013-04-19 13:02:00,77.0,67.0,-100.00,WNW,282,9.0,15.0,71,0.00,,,0.25,394.000000,,2013-04-19 23:02:00,
2013-04-19 13:11:00,77.0,67.0,-100.00,WNW,282,9.0,15.0,71,0.00,,,0.25,394.000000,,2013-04-19 23:11:00,
2013-04-19 13:22:00,77.0,67.0,-100.00,WNW,282,9.0,15.0,71,0.00,,,0.25,394.000000,,2013-04-19 23:22:00,
2013-04-19 13:31:00,77.0,67.0,-100.00,WNW,282,9.0,15.0,71,0.00,,,0.25,394.000000,,2013-04-19 23:31:00,
2013-04-19 14:02:00,76.0,65.0,-100.00,WNW,287,8.0,16.0,69,0.00,,,0.25,467.000000,,2013-04-20 00:02:00,
2013-04-19 14:12:00,76.0,65.0,-100.00,WNW,287,8.0,16.0,69,0.00,,,0.25,467.000000,,2013-04-20 00:12:00,
2013-04-19 14:21:00,76.0,65.0,-100.00,WNW,287,8.0,16.0,69,0.00,,,0.25,467.000000,,2013-04-20 00:21:00,
2013-04-19 14:31:00,76.0,65.0,-100.00,WNW,287,8.0,16.0,69,0.00,,,0.25,467.000000,,2013-04-20 00:31:00,
2013-04-19 15:01:00,76.0,65.0,-100.00,West,264,10.0,15.0,68,0.00,,,0.15,269.000000,,2013-04-20 01:01:00,
2013-04-19 15:11:00,76.0,65.0,-100.00,West,264,10.0,15.0,68,0.00,,,0.15,269.000000,,2013-04-20 01:11:00,
2013-04-19 15:21:00,76.0,65.0,-100.00,West,264,10.0,15.0,68,0.00,,,0.15,269.000000,,2013-04-20 01:21:00,
2013-04-19 15:32:00,76.0,65.0,-100.00,West,264,10.0,15.0,68,0.00,,,0.15,269.000000,,2013-04-20 01:32:00,
2013-04-19 16:01:00,75.0,66.0,-100.00,West,273,9.0,17.0,73,0.00,,,0.00,158.000000,,2013-04-20 02:01:00,
2013-04-19 16:11:00,75.0,66.0,-100.00,West,273,9.0,17.0,73,0.00,,,0.00,158.000000,,2013-04-20 02:11:00,
2013-04-19 16:21:00,75.0,66.0,-100.00,West,273,9.0,17.0,73,0.00,,,0.00,158.000000,,2013-04-20 02:21:00,
2013-04-19 16:32:00,75.0,66.0,-100.00,West,273,9.0,17.0,73,0.00,,,0.00,158.000000,,2013-04-20 02:32:00,
2013-04-19 17:01:00,75.0,65.0,-100.00,West,270,10.0,14.0,72,0.00,,,0.00,251.000000,,2013-04-20 03:01:00,
2013-04-19 17:11:00,75.0,65.0,-100.00,West,270,10.0,14.0,72,0.00,,,0.00,251.000000,,2013-04-20 03:11:00,
2013-04-19 17:21:00,75.0,65.0,-100.00,West,270,10.0,14.0,72,0.00,,,0.00,251.000000,,2013-04-20 03:21:00,
2013-04-19 17:33:00,75.0,65.0,-100.00,West,270,10.0,14.0,72,0.00,,,0.00,251.000000,,2013-04-20 03:33:00,
2013-04-19 18:03:00,75.0,65.0,-100.00,West,267,6.0,12.0,71,0.00,,,0.00,197.000000,,2013-04-20 04:03:00,
2013-04-19 18:12:00,75.0,65.0,-100.00,West,267,6.0,12.0,71,0.00,,,0.00,197.000000,,2013-04-20 04:12:00,
2013-04-19 18:23:00,75.0,65.0,-100.00,West,267,6.0,12.0,71,0.00,,,0.00,197.000000,,2013-04-20 04:23:00,
2013-04-19 18:32:00,75.0,65.0,-100.00,West,267,6.0,12.0,71,0.00,,,0.00,197.000000,,2013-04-20 04:32:00,
2013-04-19 19:02:00,72.0,63.0,-100.00,ENE,73,10.0,16.0,73,0.00,,,0.00,61.000000,,2013-04-20 05:02:00,
2013-04-19 19:12:00,72.0,63.0,-100.00,ENE,73,10.0,16.0,73,0.00,,,0.00,61.000000,,2013-04-20 05:12:00,
2013-04-19 19:21:00,72.0,63.0,-100.00,ENE,73,10.0,16.0,73,0.00,,,0.00,61.000000,,2013-04-20 05:21:00,
2013-04-19 19:32:00,72.0,63.0,-100.00,ENE,73,10.0,16.0,73,0.00,,,0.00,61.000000,,2013-04-20 05:32:00,
2013-04-19 20:01:00,70.0,62.0,-100.00,ENE,72,14.0,20.0,77,0.00,,,0.00,0.000000,,2013-04-20 06:01:00,
2013-04-19 20:12:00,70.0,62.0,-100.00,ENE,72,14.0,20.0,77,0.00,,,0.00,0.000000,,2013-04-20 06:12:00,
2013-04-19 20:21:00,70.0,62.0,-100.00,ENE,72,14.0,20.0,77,0.00,,,0.00,0.000000,,2013-04-20 06:21:00,
2013-04-19 20:31:00,70.0,62.0,-100.00,ENE,72,14.0,20.0,77,0.00,,,0.00,0.000000,,2013-04-20 06:31:00,
2013-04-19 21:01:00,71.0,62.0,-100.00,ENE,78,10.0,17.0,74,0.00,,,0.00,0.000000,,2013-04-20 07:01:00,
2013-04-19 21:11:00,71.0,62.0,-100.00,ENE,78,10.0,17.0,74,0.00,,,0.00,0.000000,,2013-04-20 07:11:00,
2013-04-19 21:21:00,71.0,62.0,-100.00,ENE,78,10.0,17.0,74,0.00,,,0.00,0.000000,,2013-04-20 07:21:00,
2013-04-19 21:31:00,71.0,62.0,-100.00,ENE,78,10.0,17.0,74,0.00,,,0.00,0.000000,,2013-04-20 07:31:00,
2013-04-19 22:01:00,69.0,61.0,-100.00,East,90,12.0,15.0,75,0.00,,,0.00,0.000000,,2013-04-20 08:01:00,
2013-04-19 22:11:00,69.0,61.0,-100.00,East,90,12.0,15.0,75,0.00,,,0.00,0.000000,,2013-04-20 08:11:00,
2013-04-19 22:21:00,69.0,61.0,-100.00,East,90,12.0,15.0,75,0.00,,,0.00,0.000000,,2013-04-20 08:21:00,
2013-04-19 22:31:00,69.0,61.0,-100.00,East,90,12.0,15.0,75,0.00,,,0.00,0.000000,,2013-04-20 08:31:00,
2013-04-19 23:01:00,69.0,60.0,-100.00,East,90,14.0,17.0,72,0.00,,,0.00,0.000000,,2013-04-20 09:01:00,
2013-04-19 23:12:00,69.0,60.0,-100.00,East,90,14.0,17.0,72,0.00,,,0.00,0.000000,,2013-04-20 09:12:00,
2013-04-19 23:21:00,69.0,60.0,-100.00,East,90,14.0,17.0,72,0.00,,,0.00,0.000000,,2013-04-20 09:21:00,
2013-04-19 23:32:00,69.0,60.0,-100.00,East,90,14.0,17.0,72,0.00,,,0.00,0.000000,,2013-04-20 09:32:00,